Vorticity
nan nan nan nan nan nan nan nan nan nan nan nan nan nan nan nan nan nan nan nan nan nan nan nan nan nan nan nan nan nan nan nan nan nan nan nan nan nan nan nan nan nan nan nan nan nan nan
nan 6 4 5 4 4 5 5 5 6 7 7 6 6 7 7 7 8 8 8 8 10 11 12 12 12 7 1 11 6 16 12 5 5 6 4 7 7 8 11 5 8 9 5 7 9 nan
nan 4 5 6 4 3 3 4 6 7 7 7 7 7 7 7 7 7 8 8 10 13 18 19 15 8 4 9 1 6 16 13 9 8 6 5 9 9 5 10 10 5 11 13 15 13 nan
nan 8 7 4 4 5 4 6 7 7 7 7 8 8 7 7 7 8 7 9 12 18 24 23 17 7 4 13 6 11 11 9 7 7 10 14 6 6 7 5 8 7 6 10 15 13 nan
nan 7 7 5 5 5 6 7 7 7 7 7 7 7 7 7 7 8 11 14 22 21 14 14 11 6 7 9 12 14 13 8 6 7 11 11 8 6 9 4 4 5 6 7 4 11 nan
nan 5 5 5 6 6 7 7 7 6 6 7 7 7 7 6 8 11 19 27 24 14 8 1 5 7 9 7 10 12 14 10 9 7 5 6 6 6 4 4 4 7 8 7 10 11 nan
nan 6 6 6 6 7 7 6 5 6 6 7 7 7 8 8 12 20 26 25 17 6 1 2 -4 -3 -0 7 9 9 12 9 9 7 3 6 2 9 6 -4 -4 6 9 5 6 0 nan
nan 6 5 7 7 7 7 6 6 6 6 7 8 9 12 15 21 24 20 14 7 6 8 14 9 6 7 5 9 12 11 8 5 6 2 5 14 5 7 10 8 2 3 3 1 8 nan
nan 7 6 6 6 7 6 6 7 6 6 7 8 11 12 22 26 11 10 2 2 14 15 15 21 19 23 18 10 6 7 8 11 9 8 -6 6 21 13 7 9 7 8 6 6 11 nan
nan 7 7 6 7 6 6 7 7 7 7 7 7 9 9 27 16 7 0 -4 13 14 11 14 11 13 10 11 16 17 9 4 8 15 8 12 6 10 13 9 8 11 16 11 7 3 nan
nan 6 6 7 7 7 6 7 7 7 7 7 8 10 17 22 9 5 1 7 19 12 3 11 12 6 8 6 8 22 17 10 8 9 4 6 22 9 4 13 7 14 21 18 10 4 nan
nan 6 6 7 7 7 6 7 6 6 7 7 7 13 23 15 7 1 8 19 18 9 7 4 2 -2 11 17 10 10 13 8 14 13 2 -1 5 16 14 15 9 6 8 10 10 10 nan
nan 7 7 6 6 6 6 6 6 7 7 6 10 22 21 9 3 9 18 19 11 3 6 8 0 5 13 17 12 12 18 11 9 14 15 14 2 3 12 11 15 -0 -3 4 8 8 nan
nan 7 7 6 6 6 5 6 8 6 7 7 19 25 14 6 8 16 16 15 4 4 4 3 6 14 11 11 11 14 24 15 8 11 23 16 17 15 7 3 9 14 -4 -0 12 10 nan
nan 6 6 6 6 5 7 7 6 8 8 14 25 16 6 5 14 16 13 10 7 4 5 6 11 19 7 2 6 13 11 14 8 12 17 18 10 14 16 20 2 11 12 3 6 10 nan
nan 5 6 6 7 7 8 7 8 9 7 23 25 6 2 9 18 17 14 7 4 4 9 12 13 7 6 7 8 9 11 9 2 4 13 17 19 19 10 6 12 12 13 6 7 7 nan
nan 7 6 7 5 8 7 8 9 8 11 26 21 7 1 13 19 10 9 6 6 3 10 13 11 9 8 7 11 12 13 4 3 8 13 13 16 13 14 13 6 4 6 4 9 10 nan
nan 6 6 7 7 7 7 8 9 8 21 22 13 6 6 11 15 8 5 10 9 3 10 15 9 8 6 10 14 10 6 5 5 13 15 12 14 11 5 11 24 16 11 8 -0 9 nan
nan 5 6 6 8 7 7 8 8 10 20 19 11 8 8 11 9 8 9 12 8 5 10 12 8 7 8 11 11 6 8 6 6 15 14 11 10 11 16 8 6 8 8 22 16 10 nan
nan 6 7 6 8 7 7 9 10 10 18 20 8 11 10 11 7 4 9 9 7 15 8 5 13 9 8 11 10 10 8 2 7 11 11 18 12 9 5 4 2 -2 6 20 26 18 nan
nan 6 6 6 7 7 8 8 10 12 18 16 10 10 8 6 5 7 12 6 4 12 12 8 14 7 8 8 8 8 1 10 13 10 6 13 11 7 9 10 9 9 10 10 17 12 nan
nan 7 6 7 7 8 7 8 9 15 18 11 9 11 9 8 7 9 12 7 5 9 9 9 5 5 11 9 5 2 7 9 6 -0 5 13 10 9 13 16 16 6 2 15 13 17 nan
nan 9 6 8 7 8 8 8 9 14 16 11 11 10 7 9 10 8 4 5 6 10 12 7 1 10 15 9 10 12 9 10 9 7 11 10 9 10 9 9 19 5 7 23 7 10 nan
nan 9 6 9 7 7 9 9 9 15 17 11 10 9 9 9 8 4 7 8 8 12 11 15 20 14 10 12 17 16 16 15 17 19 12 5 10 9 7 14 17 4 8 6 2 4 nan
nan 8 11 8 9 9 8 8 9 17 16 12 10 10 10 10 9 12 10 9 13 14 16 16 12 13 11 15 14 16 16 12 10 14 15 10 8 9 11 11 14 4 1 2 1 4 nan
nan 6 9 8 9 11 10 7 10 12 14 17 10 10 9 11 11 12 9 11 12 11 12 10 8 11 14 14 10 11 9 11 10 7 8 12 12 12 10 10 6 1 6 13 13 4 nan
nan 9 7 8 10 9 10 11 11 9 16 16 12 10 7 10 10 9 8 12 12 10 10 6 9 14 12 13 11 12 9 11 10 9 10 8 11 14 10 14 5 2 17 20 12 -0 nan
nan 9 10 11 10 10 8 12 11 13 17 14 12 11 7 9 13 12 7 8 10 9 6 12 15 10 8 10 12 11 9 11 11 8 11 11 11 14 14 13 -1 11 26 11 11 7 nan
nan nan nan nan nan nan nan nan nan nan nan nan nan nan nan nan nan nan nan nan nan nan nan nan nan nan nan nan nan nan nan nan nan nan nan nan nan nan nan nan nan nan nan nan nan nan nan
CAPE
30 19 12 20 28 39 43 31 24 13 14 20 19 15 12 11 10 8 6 5 3 4 5 4 7 4 0 0 0 0 0 1 0 0 0 0 0 0 0 0 0 0 0 0 0 0 0
11 16 24 28 37 44 35 30 13 14 16 15 13 13 10 9 8 5 3 1 0 1 3 9 7 12 2 0 0 0 0 0 0 0 0 0 0 0 0 0 0 0 0 0 0 0 0
15 23 26 46 40 24 17 26 13 13 13 15 11 9 7 5 2 1 0 0 0 0 0 6 7 6 4 0 0 0 0 0 0 0 0 0 0 0 0 0 0 0 0 0 0 0 0
28 29 44 47 32 20 9 13 11 16 19 17 12 6 4 3 1 0 0 0 0 0 2 2 9 5 1 0 0 0 0 0 0 0 0 0 0 0 0 0 0 0 0 0 0 0 0
49 61 20 12 12 9 8 8 15 15 14 10 11 8 4 1 0 0 0 0 0 6 0 7 8 5 0 0 0 0 0 0 0 0 0 0 0 0 0 0 0 0 0 0 0 0 0
19 7 7 6 7 5 3 11 14 14 16 14 10 6 3 0 0 0 0 0 0 4 1 1 4 1 0 0 0 0 0 0 0 0 0 0 0 0 0 0 0 0 0 0 0 0 0
2 5 5 2 1 4 12 15 23 20 17 14 9 6 1 0 0 0 0 0 0 0 0 0 0 0 0 0 0 0 0 0 0 0 0 0 0 0 0 0 0 0 0 0 0 0 0
4 2 1 1 11 16 22 22 17 20 12 11 8 6 0 0 0 0 0 0 0 0 6 0 0 0 0 0 0 0 0 0 0 0 0 2 0 0 0 0 0 0 0 0 0 0 0
1 2 8 15 19 16 23 19 16 13 11 11 10 4 0 0 0 0 0 0 0 0 17 0 0 0 0 0 0 0 0 0 0 0 3 0 0 0 0 0 0 0 0 0 0 0 0
4 9 14 15 15 15 22 25 23 11 7 5 5 1 0 0 0 0 0 0 0 0 1 0 0 0 0 0 0 0 0 0 0 0 1 0 0 0 0 0 0 0 0 0 0 0 0
3 11 20 14 19 26 21 20 14 5 0 0 0 0 0 0 0 0 0 0 0 0 0 0 0 0 0 0 0 0 0 4 0 0 0 0 0 0 0 0 0 0 0 0 0 0 0
11 13 11 21 25 18 13 12 5 1 0 0 0 0 0 0 0 0 0 0 0 0 0 0 0 0 0 0 0 6 0 6 14 23 10 0 0 0 0 0 0 0 0 0 2 6 9
10 6 19 21 15 11 10 9 8 6 0 0 0 0 0 0 0 0 0 0 1 0 0 0 0 0 0 3 3 17 6 18 27 25 18 18 14 1 7 4 0 17 23 17 10 23 1
13 14 17 17 11 18 18 11 12 8 0 0 0 0 0 0 0 0 0 0 0 0 1 2 3 0 31 2 1 0 41 28 12 6 15 26 10 12 12 10 8 5 8 7 1 8 3
13 12 17 8 24 9 10 26 15 6 1 0 0 0 0 0 0 0 0 1 11 11 12 8 1 1 13 0 0 0 4 6 13 11 2 36 12 0 0 4 17 22 29 4 0 0 1
10 8 15 22 8 11 18 15 9 17 1 0 0 0 0 0 0 0 0 1 1 7 9 12 18 22 16 0 0 0 13 6 4 12 8 7 6 0 1 0 6 1 9 12 22 7 5
7 9 15 10 5 24 14 9 16 21 1 0 0 0 0 0 0 0 0 0 0 0 7 13 18 18 6 4 0 0 17 3 0 0 2 10 10 6 2 13 13 15 50 25 10 13 16
8 10 17 12 11 22 9 11 18 20 1 0 0 0 0 0 0 0 0 0 0 0 0 8 5 7 9 7 0 4 5 0 0 0 0 12 8 7 36 0 18 42 15 45 56 16 9
5 7 16 7 17 27 8 13 19 24 1 0 0 0 0 0 0 0 0 0 0 0 4 0 5 2 1 0 2 10 0 0 0 0 19 6 10 5 7 26 0 2 9 4 21 0 28
3 13 11 17 18 30 11 7 29 18 0 0 0 0 0 0 0 1 2 0 0 0 6 0 0 8 0 1 0 0 0 0 0 0 0 0 8 17 7 5 5 7 9 2 5 83 35
9 9 19 20 10 20 17 4 33 18 1 0 0 0 0 0 0 1 2 0 4 6 0 0 0 12 0 3 3 1 0 0 0 0 0 0 0 0 0 0 0 1 3 1 0 0 3
38 26 18 18 19 21 30 9 29 20 3 0 0 0 4 2 0 1 0 6 7 6 8 1 4 15 7 0 0 0 0 0 0 0 0 0 0 0 0 0 0 0 0 3 0 0 1
17 17 42 33 22 21 44 17 24 25 17 23 6 6 28 0 1 7 6 11 10 15 1 8 11 19 21 4 0 0 0 0 0 0 0 0 0 0 0 0 0 7 3 1 2 1 2
29 24 27 32 30 23 38 36 21 31 23 50 27 35 33 1 2 3 2 10 10 3 12 6 10 18 0 0 0 0 0 0 0 0 0 0 2 8 6 0 0 4 4 0 1 4 3
18 37 33 30 53 29 18 61 23 45 43 43 1 6 20 9 2 0 7 13 1 0 1 3 0 0 0 0 0 0 0 0 7 0 0 0 4 8 14 12 3 2 0 0 2 1 5
36 40 49 54 42 43 31 34 41 42 45 11 4 23 28 18 0 0 11 5 3 0 0 0 0 0 0 0 0 0 0 0 5 0 0 0 0 10 3 16 7 0 1 1 3 2 6
50 55 56 55 53 45 45 23 38 33 50 27 5 6 28 11 0 8 12 16 0 2 4 1 0 0 0 0 0 0 0 0 2 0 0 0 0 0 7 10 1 2 1 1 2 0 5
42 41 43 43 46 38 37 51 38 24 35 32 4 0 44 28 2 0 2 14 8 8 5 1 0 2 2 0 1 3 7 1 0 0 0 0 0 0 0 0 0 2 0 0 2 2 4
50 41 43 41 56 49 57 58 49 29 36 3 29 0 34 41 11 1 5 0 64 0 15 9 12 0 19 21 0 0 12 0 0 8 0 0 0 0 0 1 3 4 3 5 5 4 4